1517356801.29,21753,7.75,73236.3,-13.57,-37.21,-37.21,0,*62
1517356802.59,21754,7.75,73244.0,-13.57,-37.21,-37.39,0,*6C
1517356803.84,21755,7.75,73254.0,-13.59,-37.27,-37.21,0,*6C
1517356805.11,21756,7.75,73240.0,-13.57,-37.15,-37.39,0,*69
1517356806.39,21757,7.75,73250.5,-13.57,-37.15,-37.39,0,*68
1517356807.64,21758,7.75,73244.8,-13.59,-36.85,-37.39,0,*61
1517356808.89,21759,7.75,73248.5,-13.57,-36.85,-37.15,0,*60
1517356810.17,21760,7.75,73252.5,-13.57,-37.15,-37.51,0,*62
1517356811.42,21761,7.75,73254.8,-13.59,-37.27,-37.63,0,*6D
1517356812.63,21762,7.75,73258.8,-13.59,-37.45,-37.75,0,*6D
1517356813.88,21763,7.75,73250.8,-13.59,-37.39,-37.75,0,*67
1517356815.12,21764,7.75,73250.5,-13.59,-37.39,-37.75,0,*60
1517356816.37,21765,7.75,73262.8,-13.59,-37.45,-37.63,0,*6D
1517356817.63,21766,7.75,73256.8,-13.61,-37.21,-37.45,0,*63
1517356818.88,21767,7.75,73252.5,-13.63,-37.33,-37.51,0,*66
1517356820.17,21768,7.75,73242.8,-13.61,-37.09,-37.39,0,*6C
1517356821.41,21769,7.75,73248.3,-13.61,-37.03,-37.45,0,*6C
1517356822.65,21770,7.75,73250.3,-13.61,-37.03,-37.27,0,*60
1517356823.9,21771,7.75,73254.5,-13.63,-36.73,-37.21,0,*63
1517356825.17,21772,7.75,73260.0,-13.61,-36.85,-37.21,0,*6B
1517356826.47,21773,7.75,73254.8,-13.61,-37.21,-37.63,0,*63
1517356827.71,21774,7.75,73258.0,-13.61,-37.27,-37.75,0,*65
1517356829.01,21775,7.75,73262.0,-13.61,-37.09,-37.63,0,*6F
1517356830.25,21776,7.75,73270.3,-13.61,-37.27,-37.75,0,*67
1517356831.53,21777,7.75,73266.0,-13.61,-37.21,-37.75,0,*60
1517356832.8,21778,7.75,73260.5,-13.61,-37.27,-37.63,0,*6E
1517356834.05,21779,7.75,73254.8,-13.63,-37.57,-37.99,0,*6F
1517356835.34,21780,7.75,73246.8,-13.61,-37.39,-37.81,0,*6A
1517356836.64,21781,7.75,73246.3,-13.61,-37.63,-37.99,0,*6D
1517356837.87,21782,7.75,73240.0,-13.61,-37.75,-38.05,0,*63
1517356839.14,21783,7.75,73242.8,-13.63,-37.81,-38.11,0,*6E
1517356840.39,21784,7.75,73246.0,-13.63,-37.87,-38.11,0,*6F
1517356841.63,21785,7.75,73252.5,-13.65,-37.69,-38.05,0,*6D
1517356842.86,21786,7.75,73262.0,-13.65,-37.75,-38.11,0,*66
1517356844.11,21787,7.75,73272.3,-13.65,-37.63,-37.87,0,*60
1517356845.35,21788,7.75,73274.0,-13.65,-37.45,-37.81,0,*6D
1517356846.59,21789,7.75,73278.0,-13.65,-37.51,-38.05,0,*6A
1517356847.85,21790,7.75,73284.0,-13.67,-37.87,-38.11,0,*6E
1517356849.11,21791,7.75,73288.8,-13.67,-37.75,-38.11,0,*62
1517356850.39,21792,7.75,73284.5,-13.67,-37.87,-37.99,0,*63
1517356851.66,21793,7.75,73280.8,-13.67,-37.87,-37.99,0,*62
1517356852.92,21794,7.75,73282.5,-13.67,-37.75,-37.93,0,*62
1517356854.21,21795,7.75,73280.0,-13.67,-37.69,-37.99,0,*64
1517356855.51,21796,7.75,73290.3,-13.67,-37.69,-37.99,0,*67
1517356856.78,21797,7.75,73292.8,-13.67,-37.75,-37.99,0,*6B
1517356858.04,21798,7.75,73290.3,-13.69,-37.51,-37.93,0,*66
1517356859.25,21799,7.75,73284.0,-13.69,-37.57,-37.75,0,*69
1517356860.52,21800,7.75,73278.3,-13.69,-37.21,-37.39,0,*6F
1517356861.78,21801,7.75,73274.0,-13.71,-36.91,-37.27,0,*62
1517356863.01,21802,7.75,73272.5,-13.71,-37.03,-37.45,0,*6F
1517356864.25,21803,7.75,73264.0,-13.69,-36.61,-36.97,0,*6C
1517356865.46,21804,7.75,73264.0,-13.69,-36.85,-37.03,0,*6D
1517356866.73,21805,7.75,73258.0,-13.67,-37.03,-37.51,0,*6A
1517356867.97,21806,7.75,73258.5,-13.67,-36.97,-37.33,0,*61
1517356869.24,21807,7.75,73234.5,-13.67,-36.97,-37.21,0,*63
1517356870.48,21808,7.75,73224.3,-13.67,-36.97,-37.33,0,*6F
1517356871.77,21809,7.75,73216.5,-13.67,-36.79,-37.21,0,*6D
1517356873.02,21810,7.75,73218.3,-13.65,-37.15,-37.51,0,*6B
1517356874.26,21811,7.75,73220.8,-13.65,-37.45,-37.81,0,*62
1517356875.5,21812,7.75,73240.0,-13.67,-37.15,-37.57,0,*6D
1517356876.76,21813,7.75,73242.5,-13.67,-37.03,-37.21,0,*6A
1517356878.0,21814,7.75,73242.5,-13.65,-37.27,-37.69,0,*65
1517356879.24,21815,7.75,73238.0,-13.67,-37.33,-37.57,0,*6E
1517356880.51,21816,7.75,73226.3,-13.67,-37.39,-37.87,0,*6A
1517356881.77,21817,7.75,73208.3,-13.65,-37.51,-37.93,0,*62
1517356883.04,21818,7.75,73234.0,-13.67,-37.51,-37.75,0,*67
1517356884.34,21819,7.75,73228.0,-13.67,-37.21,-37.51,0,*67
1517356885.63,21820,7.75,73260.3,-13.67,-37.21,-37.69,0,*66
1517356886.87,21821,7.75,73284.5,-13.65,-37.09,-37.27,0,*65
1517356888.11,21822,7.75,73276.0,-13.65,-36.79,-37.15,0,*61
1517356889.35,21823,7.75,73270.0,-13.65,-37.15,-37.51,0,*6B
1517356890.6,21824,7.75,73284.5,-13.67,-37.33,-37.87,0,*61
1517356891.84,21825,7.75,73262.0,-13.65,-37.15,-37.51,0,*6D
1517356893.11,21826,7.75,73262.5,-13.67,-37.39,-37.75,0,*64
1517356894.37,21827,7.75,73284.3,-13.67,-37.39,-37.87,0,*68
1517356895.62,21828,7.75,73286.0,-13.67,-37.15,-37.57,0,*64
1517356896.88,21829,7.75,73276.5,-13.67,-36.79,-37.15,0,*68
1517356898.14,21830,7.75,73250.0,-13.67,-36.37,-36.85,0,*62
1517356899.4,21831,7.75,73246.3,-13.65,-36.49,-36.91,0,*6D
1517356900.67,21832,7.75,73256.0,-13.67,-36.01,-36.37,0,*6C
1517356901.93,21833,7.75,73252.8,-13.65,-36.13,-36.49,0,*65
1517356903.19,21834,7.75,73262.5,-13.65,-36.37,-36.79,0,*67
1517356904.41,21835,7.75,73274.5,-13.65,-36.67,-37.15,0,*68
1517356905.63,21836,7.75,73272.0,-13.65,-36.19,-36.67,0,*66
1517356906.87,21837,7.75,73278.0,-13.63,-36.13,-36.67,0,*6B
1517356908.15,21838,7.75,73290.5,-13.61,-36.25,-36.67,0,*63
1517356909.37,21839,7.75,73304.8,-13.63,-36.19,-36.67,0,*6F
1517356910.63,21840,7.75,73300.0,-13.61,-36.13,-36.67,0,*69
1517356911.87,21841,7.75,73296.5,-13.61,-36.43,-37.03,0,*6E
1517356913.16,21842,7.75,73310.0,-13.61,-36.49,-36.91,0,*6D
1517356914.41,21843,7.75,73286.5,-13.59,-36.43,-37.09,0,*6D
1517356915.63,21844,7.75,73228.3,-13.59,-36.31,-36.85,0,*6A
1517356916.9,21845,7.75,73230.3,-13.57,-36.85,-37.39,0,*6C
1517356918.12,21846,7.75,73240.0,-13.59,-37.03,-37.57,0,*66
1517356919.34,21847,7.75,73258.3,-13.59,-37.03,-37.75,0,*67
1517356920.59,21848,7.75,73254.3,-13.59,-37.03,-37.63,0,*6F
1517356921.84,21849,7.75,73228.3,-13.57,-37.03,-37.57,0,*67
1517356923.08,21850,7.75,73220.3,-13.59,-37.09,-37.75,0,*6B
1517356924.33,21851,7.75,73202.5,-13.59,-36.91,-37.57,0,*6A
1517356925.61,21852,7.75,73212.0,-13.57,-37.21,-37.75,0,*6D
1517356926.89,21853,7.75,73240.5,-13.59,-37.21,-37.63,0,*65
1517356928.11,21854,7.75,73248.0,-13.59,-36.85,-37.27,0,*6D
1517356929.38,21855,7.75,73258.3,-13.57,-36.07,-36.37,0,*68
1517356930.62,21856,7.75,73224.3,-13.57,-36.19,-36.67,0,*61
1517356931.87,21857,7.75,73170.5,-13.55,-36.97,-37.51,0,*60
1517356933.17,21858,7.75,73182.5,-13.57,-37.51,-37.99,0,*62
1517356934.44,21859,7.75,73184.8,-13.57,-37.39,-37.75,0,*6F
1517356935.75,21860,7.81,73194.3,-13.57,-37.51,-37.99,0,*69
1517356937.05,21861,7.75,73192.0,-13.57,-37.51,-37.99,0,*68
1517356938.26,21862,7.75,73206.3,-13.59,-37.57,-38.17,0,*6A
1517356939.57,21863,7.75,73214.3,-13.57,-37.69,-38.29,0,*65
1517356940.84,21864,7.75,73208.5,-13.57,-37.51,-38.17,0,*64
1517356942.09,21865,7.75,73206.0,-13.59,-37.81,-38.35,0,*66
1517356943.32,21866,7.75,73212.5,-13.59,-37.87,-38.35,0,*63
1517356944.54,21867,7.75,73222.8,-13.59,-37.87,-38.43,0,*63
1517356945.77,21868,7.75,73232.3,-13.59,-37.87,-38.35,0,*6D
1517356947.02,21869,7.75,73238.5,-13.61,-37.87,-38.55,0,*61
1517356948.27,21870,7.75,73248.0,-13.61,-37.87,-38.35,0,*6F
1517356949.54,21871,7.75,73250.0,-13.63,-37.81,-38.29,0,*67
1517356950.79,21872,7.75,73248.0,-13.61,-38.05,-38.61,0,*69
1517356952.03,21873,7.75,73244.0,-13.61,-38.05,-38.61,0,*68
1517356953.27,21874,7.75,73246.3,-13.63,-37.93,-38.43,0,*6D
1517356954.55,21875,7.75,73250.8,-13.63,-37.81,-38.29,0,*63
1517356955.82,21876,7.75,73254.5,-13.63,-38.11,-38.67,0,*6C
1517356957.08,21877,7.75,73252.0,-13.63,-38.11,-38.67,0,*6D
1517356958.35,21878,7.75,73256.3,-13.63,-38.29,-38.79,0,*66
1517356959.6,21879,7.75,73266.5,-13.63,-38.29,-38.85,0,*64
1517356960.87,21880,7.75,73270.3,-13.63,-37.93,-38.49,0,*6C
1517356962.13,21881,7.75,73272.0,-13.63,-37.93,-38.49,0,*6D
1517356963.37,21882,7.75,73268.3,-13.65,-38.23,-38.61,0,*66
1517356964.59,21883,7.75,73266.3,-13.65,-38.43,-38.85,0,*6B
1517356965.82,21884,7.75,73280.0,-13.67,-38.35,-38.73,0,*66
1517356967.09,21885,7.75,73276.3,-13.67,-38.49,-38.85,0,*65
1517356968.33,21886,7.75,73286.3,-13.67,-38.35,-38.85,0,*6D
1517356969.57,21887,7.75,73286.8,-13.65,-38.29,-38.61,0,*69
1517356970.81,21888,7.75,73286.0,-13.69,-38.35,-38.67,0,*61
1517356972.05,21889,7.75,73298.3,-13.69,-38.17,-38.49,0,*6C
1517356973.26,21890,7.75,73300.0,-13.69,-38.35,-38.55,0,*69
1517356974.47,21891,7.75,73300.5,-13.69,-38.35,-38.55,0,*68
1517356975.71,21892,7.75,73306.5,-13.69,-38.17,-38.49,0,*66
1517356976.95,21893,7.75,73300.8,-13.71,-38.43,-38.61,0,*65
1517356978.19,21894,7.75,73306.3,-13.71,-38.55,-38.61,0,*65
1517356979.42,21895,7.75,73304.8,-13.71,-38.35,-38.61,0,*62
1517356980.68,21896,7.75,73300.8,-13.71,-38.23,-38.61,0,*66
1517356981.94,21897,7.75,73310.0,-13.71,-38.23,-38.43,0,*67
1517356983.21,21898,7.75,73318.0,-13.71,-37.81,-38.05,0,*6D
1517356984.47,21899,7.75,73320.3,-13.71,-37.21,-37.27,0,*69
1517356985.73,21900,7.75,73312.8,-13.71,-37.03,-37.21,0,*6E
1517356986.98,21901,7.75,73308.0,-13.69,-37.03,-37.51,0,*61
1517356988.23,21902,7.75,73308.5,-13.71,-37.09,-37.45,0,*64
1517356989.49,21903,7.75,73288.3,-13.71,-37.09,-37.45,0,*65
1517356990.7,21904,7.75,73294.5,-13.69,-36.97,-37.33,0,*6C
1517356991.95,21905,7.75,73272.3,-13.69,-37.15,-37.51,0,*62
1517356993.18,21906,7.75,73250.8,-13.69,-36.79,-37.15,0,*6A
1517356994.43,21907,7.75,73248.0,-13.67,-36.43,-36.73,0,*6D
1517356995.65,21908,7.75,73254.0,-13.65,-36.19,-36.55,0,*6B
1517356996.94,21909,7.75,73256.3,-13.67,-36.37,-36.61,0,*63
1517356998.2,21910,7.75,73262.5,-13.65,-36.37,-36.79,0,*60
1517356999.44,21911,7.75,73258.3,-13.65,-36.55,-36.91,0,*63
1517357000.68,21912,7.75,73276.8,-13.65,-36.55,-36.79,0,*66
1517357001.9,21913,7.75,73286.0,-13.63,-36.19,-36.67,0,*66
1517357003.15,21914,7.75,73290.0,-13.61,-36.43,-36.67,0,*6C
1517357004.41,21915,7.75,73286.0,-13.61,-36.61,-36.85,0,*61
1517357005.68,21916,7.75,73290.0,-13.61,-36.73,-37.09,0,*64
1517357006.95,21917,7.75,73286.5,-13.61,-36.85,-37.21,0,*66
1517357008.19,21918,7.75,73284.5,-13.61,-37.03,-37.27,0,*60
1517357009.45,21919,7.75,73290.0,-13.63,-36.37,-36.79,0,*6F
1517357010.68,21920,7.75,73280.3,-13.59,-36.31,-36.67,0,*65
1517357011.92,21921,7.75,73256.5,-13.59,-36.73,-37.09,0,*6B
1517357013.17,21922,7.75,73264.0,-13.59,-36.91,-37.27,0,*68
1517357014.39,21923,7.75,73250.5,-13.59,-37.27,-37.57,0,*62
1517357015.63,21924,7.75,73268.3,-13.59,-37.27,-37.63,0,*62
1517357016.88,21925,7.75,73242.0,-13.59,-37.09,-37.27,0,*6F
1517357018.15,21926,7.75,73222.5,-13.59,-36.91,-37.39,0,*63
1517357019.39,21927,7.75,73216.0,-13.57,-37.03,-37.33,0,*6C
1517357020.64,21928,7.75,73204.0,-13.57,-36.85,-37.03,0,*6F
1517357021.92,21929,7.75,73204.3,-13.57,-36.85,-37.21,0,*6E
1517357023.17,21930,7.75,73194.5,-13.57,-36.55,-36.85,0,*64
1517357024.44,21931,7.75,73186.5,-13.57,-36.37,-36.67,0,*6D
1517357025.72,21932,7.75,73206.3,-13.57,-36.97,-37.21,0,*67
1517357026.99,21933,7.75,73208.5,-13.57,-37.33,-37.69,0,*65
1517357028.22,21934,7.75,73220.0,-13.53,-37.15,-37.45,0,*6C
1517357029.47,21935,7.75,73256.3,-13.55,-37.15,-37.39,0,*60
1517357030.68,21936,7.75,73222.5,-13.55,-37.15,-37.33,0,*69
1517357031.94,21937,7.75,73238.5,-13.53,-37.09,-37.33,0,*63
1517357033.21,21938,7.75,73244.0,-13.53,-37.09,-37.33,0,*6C
1517357034.47,21939,7.75,73258.3,-13.53,-37.09,-37.27,0,*68
1517357035.72,21940,7.75,73260.0,-13.55,-37.21,-37.57,0,*6D
1517357036.99,21941,7.75,73260.8,-13.53,-37.15,-37.51,0,*6B
1517357038.25,21942,7.75,73244.0,-13.55,-37.39,-37.69,0,*6B
1517357039.51,21943,7.75,73256.0,-13.53,-37.45,-37.69,0,*67
1517357040.78,21944,7.75,73258.8,-13.55,-37.81,-38.11,0,*6E
1517357042.04,21945,7.75,73250.5,-13.55,-37.93,-38.11,0,*6C
1517357043.33,21946,7.75,73250.8,-13.53,-37.63,-37.93,0,*63
1517357044.56,21947,7.75,73248.5,-13.53,-37.75,-38.05,0,*65
1517357045.8,21948,7.75,73264.0,-13.55,-37.69,-38.17,0,*62
1517357047.07,21949,7.75,73268.8,-13.55,-37.69,-37.99,0,*6A
1517357048.33,21950,7.75,73266.8,-13.55,-37.93,-38.11,0,*68
1517357049.6,21951,7.75,73264.0,-13.55,-37.93,-38.29,0,*62
1517357050.88,21952,7.75,73262.5,-13.57,-38.11,-38.35,0,*6B
1517357052.15,21953,7.75,73270.5,-13.57,-38.11,-38.35,0,*6A
1517357053.45,21954,7.75,73272.3,-13.57,-37.99,-38.29,0,*6F
1517357054.73,21955,7.75,73274.0,-13.57,-37.93,-38.35,0,*69
1517357055.97,21956,7.75,73280.8,-13.59,-38.23,-38.43,0,*61
1517357057.19,21957,7.75,73274.5,-13.59,-38.05,-38.43,0,*64
1517357058.43,21958,7.75,73276.8,-13.59,-37.99,-38.05,0,*63
1517357059.73,21959,7.75,73286.3,-13.57,-37.81,-38.11,0,*60
1517357060.95,21960,7.75,73286.5,-13.59,-37.87,-38.17,0,*64
1517357062.17,21961,7.75,73262.3,-13.59,-37.87,-38.05,0,*66
1517357063.41,21962,7.75,73260.0,-13.61,-37.75,-38.05,0,*63
1517357064.66,21963,7.75,73268.0,-13.59,-37.81,-38.17,0,*61
1517357065.88,21964,7.75,73258.3,-13.59,-38.05,-38.35,0,*65
1517357067.1,21965,7.75,73252.3,-13.59,-38.05,-38.35,0,*64
1517357068.34,21966,7.75,73262.5,-13.61,-38.05,-38.35,0,*6C
1517357069.64,21967,7.75,73264.3,-13.61,-37.81,-37.99,0,*67
1517357070.92,21968,7.75,73252.3,-13.63,-37.81,-38.23,0,*64
1517357072.16,21969,7.75,73252.0,-13.61,-37.45,-37.87,0,*6E
1517357073.43,21970,7.75,73188.5,-13.61,-37.45,-37.81,0,*60
1517357074.7,21971,7.75,73182.3,-13.61,-37.63,-37.87,0,*63
1517357075.95,21972,7.75,73198.8,-13.61,-38.17,-38.43,0,*6B
1517357077.22,21973,7.75,73220.5,-13.61,-37.99,-38.17,0,*62
1517357078.49,21974,7.75,73238.5,-13.61,-37.81,-38.05,0,*6F
1517357079.74,21975,7.75,73246.5,-13.63,-37.81,-37.87,0,*69
1517357080.98,21976,7.75,73248.5,-13.61,-38.05,-38.35,0,*6D
1517357082.23,21977,7.75,73270.5,-13.61,-38.05,-38.35,0,*6C
1517357083.47,21978,7.75,73280.3,-13.61,-38.35,-38.55,0,*66
1517357084.74,21979,7.75,73294.5,-13.63,-38.29,-38.49,0,*65
1517357085.98,21980,7.75,73304.8,-13.63,-38.23,-38.43,0,*63
1517357087.25,21981,7.75,73304.8,-13.63,-37.63,-37.93,0,*6B
1517357088.52,21982,7.75,73306.3,-13.63,-37.93,-38.11,0,*62
1517357089.76,21983,7.75,73306.3,-13.63,-38.11,-38.43,0,*61
1517357091.0,21984,7.75,73324.8,-13.63,-38.11,-38.43,0,*66
1517357092.27,21985,7.75,73320.8,-13.63,-38.11,-38.29,0,*6B
1517357093.51,21986,7.75,73320.5,-13.65,-38.05,-38.23,0,*61
1517357094.78,21987,7.75,73318.0,-13.63,-37.93,-38.11,0,*67
1517357096.0,21988,7.75,73300.8,-13.63,-37.87,-38.05,0,*68
1517357097.26,21989,7.75,73298.3,-13.63,-37.69,-37.93,0,*69
1517357098.53,21990,7.75,73302.8,-13.65,-38.23,-38.29,0,*68
1517357099.81,21991,7.75,73300.8,-13.65,-38.29,-38.29,0,*63
1517357101.07,21992,7.75,73296.8,-13.67,-38.23,-38.35,0,*65
1517357102.31,21993,7.75,73294.3,-13.65,-38.05,-38.23,0,*65
1517357103.56,21994,7.75,73282.8,-13.65,-38.05,-38.23,0,*62
1517357104.81,21995,7.75,73280.8,-13.65,-37.81,-37.87,0,*61
1517357106.1,21996,7.75,73288.8,-13.67,-37.69,-37.93,0,*63
1517357107.39,21997,7.75,73272.5,-13.67,-37.51,-37.69,0,*6C
1517357108.65,21998,7.75,73268.5,-13.67,-37.51,-37.57,0,*6E
1517357109.87,21999,7.75,73272.8,-13.65,-36.97,-37.15,0,*60
1517357111.09,22000,7.75,73276.8,-13.65,-36.97,-37.15,0,*6A
1517357112.33,22001,7.75,73274.0,-13.65,-36.67,-36.91,0,*69
1517357113.58,22002,7.75,73278.8,-13.67,-36.73,-37.03,0,*67
1517357114.82,22003,7.75,73284.3,-13.63,-36.37,-36.67,0,*61
1517357116.04,22004,7.75,73284.3,-13.63,-36.73,-36.97,0,*69
1517357117.29,22005,7.75,73284.3,-13.61,-36.85,-37.03,0,*6F
1517357118.53,22006,7.75,73272.5,-13.63,-36.79,-37.15,0,*6A
1517357119.8,22007,7.75,73256.8,-13.61,-37.21,-37.45,0,*60
1517357121.06,22008,7.75,73244.5,-13.61,-37.09,-37.27,0,*61
1517357122.36,22009,7.75,73246.0,-13.61,-37.09,-37.39,0,*6F
1517357123.6,22010,7.81,73254.8,-13.61,-37.45,-37.75,0,*67
1517357124.84,22011,7.75,73254.0,-13.59,-37.57,-37.81,0,*65
1517357126.12,22012,7.75,73254.0,-13.57,-37.57,-37.81,0,*68
1517357127.33,22013,7.75,73252.0,-13.59,-37.75,-38.05,0,*64
1517357128.58,22014,7.75,73252.3,-13.59,-37.81,-38.05,0,*68
1517357129.85,22015,7.75,73254.0,-13.59,-37.63,-37.99,0,*6F
1517357131.07,22016,7.75,73252.0,-13.59,-37.87,-38.17,0,*6F
1517357132.29,22017,7.75,73258.5,-13.59,-37.87,-38.17,0,*6E
1517357133.54,22018,7.75,73244.3,-13.59,-37.87,-38.23,0,*66
1517357134.79,22019,7.75,73232.8,-13.59,-37.81,-38.17,0,*66
1517357136.04,22020,7.75,73232.5,-13.63,-37.87,-38.23,0,*64
1517357137.32,22021,7.75,73240.3,-13.61,-37.87,-37.99,0,*69
1517357138.56,22022,7.75,73238.5,-13.61,-38.17,-38.43,0,*64
1517357139.81,22023,7.75,73238.3,-13.61,-38.05,-38.35,0,*67
1517357141.05,22024,7.75,73238.0,-13.61,-37.75,-37.87,0,*6E
1517357142.32,22025,7.75,73236.8,-13.61,-37.57,-37.81,0,*69
1517357143.59,22026,7.75,73234.5,-13.61,-37.39,-37.75,0,*69
1517357144.83,22027,7.75,73242.8,-13.63,-37.69,-37.87,0,*62
1517357146.08,22028,7.75,73238.5,-13.61,-38.17,-38.43,0,*6E
1517357147.35,22029,7.75,73228.5,-13.63,-38.23,-38.49,0,*60
1517357148.65,22030,7.75,73242.0,-13.61,-37.81,-37.81,0,*66
1517357149.94,22031,7.75,73224.0,-13.61,-37.63,-37.81,0,*6B
1517357151.21,22032,7.75,73246.3,-13.63,-37.69,-37.93,0,*63
1517357152.45,22033,7.75,73248.0,-13.63,-37.81,-38.05,0,*64
1517357153.73,22034,7.75,73250.3,-13.63,-37.81,-38.11,0,*66
1517357154.97,22035,7.75,73248.5,-13.61,-38.05,-38.17,0,*60
1517357156.23,22036,7.75,73250.5,-13.61,-38.23,-38.55,0,*61
1517357157.5,22037,7.75,73252.3,-13.63,-38.23,-38.29,0,*69
1517357158.77,22038,7.75,73268.5,-13.63,-38.11,-38.23,0,*6D
1517357160.04,22039,7.75,73276.8,-13.61,-37.99,-38.17,0,*66
1517357161.31,22040,7.75,73272.3,-13.61,-37.81,-38.05,0,*62
1517357162.52,22041,7.75,73262.8,-13.63,-37.45,-37.75,0,*61
1517357163.79,22042,7.75,73236.0,-13.61,-37.39,-37.45,0,*68
1517357165.05,22043,7.75,73260.3,-13.61,-37.39,-37.75,0,*6A
1517357166.32,22044,7.75,73274.3,-13.63,-37.51,-37.81,0,*6A
1517357167.54,22045,7.75,73276.0,-13.63,-37.57,-37.75,0,*66
1517357168.84,22046,7.75,73276.0,-13.61,-37.81,-37.81,0,*67
1517357170.14,22047,7.75,73272.8,-13.61,-37.81,-37.81,0,*66
1517357171.44,22048,7.75,73278.5,-13.61,-37.39,-37.63,0,*66
1517357172.71,22049,7.75,73262.0,-13.61,-37.45,-37.63,0,*6C
1517357174.01,22050,7.75,73248.5,-13.61,-37.39,-37.63,0,*6F
1517357175.28,22051,7.75,73272.3,-13.61,-37.63,-37.75,0,*66
1517357176.51,22052,7.75,73258.5,-13.61,-38.05,-38.05,0,*62
1517357177.79,22053,7.75,73270.0,-13.59,-37.99,-37.99,0,*68
1517357179.05,22054,7.75,73268.0,-13.61,-37.63,-37.75,0,*63
1517357180.31,22055,7.75,73270.8,-13.61,-37.39,-37.45,0,*6E
1517357181.61,22056,7.75,73272.3,-13.61,-37.09,-37.21,0,*6C
1517357182.88,22057,7.75,73278.3,-13.61,-37.03,-37.09,0,*6D
1517357184.15,22058,7.75,73270.5,-13.61,-36.85,-36.91,0,*6D
1517357185.41,22059,7.75,73268.0,-13.57,-36.79,-36.97,0,*6C
1517357186.64,22060,7.75,73262.3,-13.59,-36.85,-37.03,0,*67
1517357187.89,22061,7.75,73262.8,-13.57,-36.97,-37.15,0,*6C
1517357189.16,22062,7.75,73264.0,-13.57,-37.03,-37.21,0,*64
1517357190.41,22063,7.75,73272.8,-13.55,-37.03,-37.39,0,*6E
1517357191.7,22064,7.75,73272.0,-13.57,-37.39,-37.69,0,*67
1517357192.97,22065,7.75,73256.0,-13.57,-37.57,-37.81,0,*68
1517357194.27,22066,7.75,73266.8,-13.57,-37.81,-38.11,0,*66
1517357195.55,22067,7.75,73218.8,-13.57,-38.17,-38.29,0,*6C
1517357196.85,22068,7.75,73212.5,-13.57,-37.93,-38.29,0,*60
1517357198.13,22069,7.75,73214.8,-13.57,-38.11,-38.35,0,*69
1517357199.37,22070,7.75,73222.0,-13.59,-38.23,-38.55,0,*68
1517357200.65,22071,7.75,73240.3,-13.57,-38.17,-38.49,0,*6D
1517357201.89,22072,7.75,73214.0,-13.59,-38.23,-38.43,0,*6D
1517357203.16,22073,7.75,73244.8,-13.57,-38.17,-38.49,0,*6F
1517357204.41,22074,7.75,73266.5,-13.59,-38.29,-38.55,0,*66
1517357205.63,22075,7.75,73268.5,-13.59,-38.35,-38.43,0,*6D
1517357206.85,22076,7.75,73254.0,-13.59,-38.35,-38.61,0,*6E
1517357208.07,22077,7.75,73256.8,-13.59,-38.43,-38.55,0,*69
1517357209.31,22078,7.75,73266.0,-13.59,-38.55,-38.79,0,*6F
1517357210.58,22079,7.75,73272.8,-13.61,-38.61,-38.79,0,*62
1517357211.85,22080,7.75,73274.5,-13.61,-38.73,-38.79,0,*67
1517357213.11,22081,7.75,73254.3,-13.61,-38.55,-38.67,0,*6D
1517357214.36,22082,7.75,73280.0,-13.61,-38.43,-38.43,0,*6F
1517357215.6,22083,7.75,73278.8,-13.61,-38.43,-38.55,0,*69
1517357216.87,22084,7.75,73284.0,-13.63,-38.49,-38.49,0,*6B
1517357218.11,22085,7.75,73278.0,-13.65,-37.93,-38.05,0,*6C
1517357219.37,22086,7.75,73292.5,-13.63,-38.11,-38.11,0,*69
1517357220.62,22087,7.75,73286.8,-13.63,-38.29,-38.43,0,*64
1517357221.86,22088,7.75,73278.5,-13.65,-38.43,-38.49,0,*6B
1517357223.11,22089,7.75,73276.3,-13.65,-38.49,-38.61,0,*6A
1517357224.36,22090,7.75,73270.8,-13.65,-38.29,-38.43,0,*64
1517357225.6,22091,7.75,73270.8,-13.65,-38.29,-38.43,0,*65
1517357226.85,22092,7.75,73286.5,-13.65,-38.43,-38.49,0,*60
1517357228.11,22093,7.75,73292.5,-13.65,-38.11,-38.11,0,*6B
1517357229.35,22094,7.75,73292.0,-13.65,-38.29,-38.43,0,*60
1517357230.57,22095,7.75,73288.0,-13.65,-38.43,-38.61,0,*6D
1517357231.82,22096,7.75,73286.0,-13.65,-38.49,-38.61,0,*64
1517357233.05,22097,7.75,73294.3,-13.65,-38.67,-38.85,0,*63
1517357234.29,22098,7.75,73290.3,-13.65,-38.73,-38.91,0,*6C
1517357235.53,22099,7.75,73282.8,-13.67,-38.55,-38.73,0,*67
1517357236.79,22100,7.81,73310.3,-13.67,-38.55,-38.67,0,*63
1517357238.0,22101,7.75,73306.8,-13.69,-38.55,-38.73,0,*69
1517357239.27,22102,7.75,73296.5,-13.69,-38.49,-38.67,0,*62
1517357240.5,22103,7.75,73284.3,-13.69,-38.67,-38.55,0,*6E
1517357241.74,22104,7.75,73294.0,-13.69,-38.55,-38.67,0,*69
1517357242.96,22105,7.75,73298.0,-13.69,-38.55,-38.55,0,*69
1517357244.19,22106,7.75,73296.3,-13.69,-38.67,-38.85,0,*66
1517357245.48,22107,7.81,73302.8,-13.71,-38.91,-38.91,0,*62
1517357246.77,22108,7.75,73300.3,-13.71,-38.79,-38.79,0,*6D
1517357248.0,22109,7.75,73296.3,-13.71,-38.97,-38.97,0,*6C
1517357249.26,22110,7.75,73302.0,-13.71,-38.73,-38.79,0,*6E
1517357250.52,22111,7.75,73298.0,-13.75,-38.73,-38.79,0,*6B
1517357251.81,22112,7.75,73296.0,-13.75,-38.91,-38.79,0,*64
1517357253.08,22113,7.81,73304.5,-13.77,-38.79,-38.79,0,*61
1517357254.31,22114,7.75,73300.0,-13.75,-38.73,-38.73,0,*64
1517357255.58,22115,7.75,73304.8,-13.77,-38.67,-38.67,0,*67
1517357256.79,22116,7.75,73302.3,-13.77,-38.61,-38.61,0,*64
1517357258.04,22117,7.75,73300.3,-13.77,-38.49,-38.43,0,*6F
1517357259.32,22118,7.75,73288.8,-13.77,-38.49,-38.29,0,*6C
1517357260.56,22119,7.75,73282.3,-13.77,-38.43,-38.29,0,*67
1517357261.81,22120,7.75,73284.3,-13.77,-38.49,-38.61,0,*6B
1517357263.08,22121,7.75,73282.0,-13.77,-38.79,-38.67,0,*6F
1517357264.35,22122,7.75,73250.3,-13.77,-38.49,-38.49,0,*63
1517357265.63,22123,7.75,73244.5,-13.79,-38.49,-38.43,0,*66
1517357266.9,22124,7.81,73240.5,-13.79,-38.61,-38.49,0,*61
1517357268.18,22125,7.75,73256.3,-13.81,-38.49,-38.49,0,*6D
1517357269.42,22126,7.81,73296.0,-13.81,-38.55,-38.49,0,*63
1517357270.69,22127,7.75,73288.3,-13.81,-38.11,-38.11,0,*6F
1517357271.98,22128,7.75,73284.8,-13.79,-38.23,-38.11,0,*66
1517357273.26,22129,7.75,73276.0,-13.79,-38.23,-38.11,0,*67
1517357274.51,22130,7.75,73284.8,-13.81,-38.17,-38.29,0,*64
1517357275.77,22131,7.75,73288.0,-13.79,-38.11,-38.05,0,*6A
1517357277.04,22132,7.75,73284.0,-13.79,-38.43,-38.23,0,*6A
1517357278.29,22133,7.75,73276.3,-13.81,-38.55,-38.49,0,*67
1517357279.51,22134,7.75,73270.0,-13.81,-38.55,-38.55,0,*6D
1517357280.78,22135,7.75,73260.5,-13.81,-38.67,-38.67,0,*6C
1517357282.06,22136,7.75,73270.3,-13.81,-38.29,-38.29,0,*6F
1517357283.33,22137,7.75,73268.3,-13.81,-38.49,-38.49,0,*6E
1517357284.58,22138,7.75,73264.8,-13.81,-38.35,-38.29,0,*6C
1517357285.79,22139,7.75,73258.5,-13.81,-38.05,-38.05,0,*60
1517357287.01,22140,7.75,73268.0,-13.81,-37.75,-37.75,0,*6E
1517357288.31,22141,7.75,73286.5,-13.83,-37.93,-37.93,0,*6D
1517357289.54,22142,7.75,73270.3,-13.81,-37.87,-37.87,0,*6C
1517357290.79,22143,7.75,73240.5,-13.81,-37.93,-37.87,0,*68
1517357292.03,22144,7.75,73212.8,-13.81,-37.75,-37.69,0,*67
1517357293.27,22145,7.75,73226.5,-13.79,-37.15,-37.15,0,*6C
1517357294.56,22146,7.81,73232.0,-13.79,-36.91,-36.91,0,*6F
1517357295.86,22147,7.75,73208.0,-13.79,-37.51,-37.63,0,*6F
1517357297.08,22148,7.75,73198.8,-13.81,-37.57,-37.57,0,*66
1517357298.35,22149,7.75,73224.0,-13.77,-37.69,-37.81,0,*68
1517357299.62,22150,7.75,73234.8,-13.77,-37.63,-37.63,0,*66
1517357300.83,22151,7.75,73230.3,-13.77,-37.45,-37.33,0,*66
1517357302.1,22152,7.75,73218.8,-13.75,-37.09,-37.03,0,*6C